�_�E�����[�h���������F2020/07/14 09:17:04,,,
,,,
,���v,���v,���v
�N����,���ϋC��(��),�ō��C��(��),�Œ�C��(��)
,,,
,,,
2018/6/6,17.3,19.7,15.8
2018/6/7,21.6,29.9,14.8
2018/6/8,21.4,29.4,13.9
2018/6/9,21.4,28,16.8
2018/6/10,17.1,19.4,15.9
2018/6/11,17.9,20.3,15.7
2018/6/12,20,25.1,15.7
2018/6/13,17.6,24.2,12.4
2018/6/14,17.6,26.8,10.3
2018/6/15,16.3,19.3,13.9
2018/6/16,14.6,20.1,12.6
2018/6/17,15.8,21.4,11.9
2018/6/18,15.5,18,11.8
2018/6/19,20.7,27.6,13.8
2018/6/20,18.2,19.9,17.1
2018/6/21,20.5,26.2,16.7
2018/6/22,19.9,27.7,14.5
2018/6/23,16.3,20,13.1
2018/6/24,20,28.7,13
2018/6/25,22.7,31.7,13.5
2018/6/26,23.9,31.3,17.1
2018/6/27,25.3,29.3,20
2018/6/28,23.7,29.2,20.1
2018/6/29,25.5,31.6,19
����,24,24,24
,19.6,25.2,15.0
2018/6/30,25.9,32.7,19.1
2018/7/1,26,32.9,19.1
2018/7/2,26.3,34.7,18.9
2018/7/3,25.9,32.2,20.4
2018/7/4,24,27.7,19.9
2018/7/5,21.8,24.1,18.4
2018/7/6,19.5,22.3,17.9
2018/7/7,19.8,22,17.6
2018/7/8,22.8,27.8,19.2
2018/7/9,24.3,31.1,17.6
2018/7/10,24.3,31.9,20.3
2018/7/11,24.6,30.7,20.6
2018/7/12,24,30.2,20
2018/7/13,25.7,33,20.6
2018/7/14,26.5,34.5,20.6
2018/7/15,27.9,36.7,21.5
2018/7/16,27.7,34.8,21.6
2018/7/17,28.1,36,22
2018/7/18,28.3,35.6,21.8
2018/7/19,28,35.2,22.3
2018/7/20,27.3,35,22.6
2018/7/21,27.9,35.7,21.9
2018/7/22,27.9,35.7,22.1
2018/7/23,27.7,35.7,21.1
2018/7/24,26.4,34.4,20.4
2018/7/25,26.2,33.7,20.4
2018/7/26,24.8,31.5,20.8
2018/7/27,23.2,29.7,18.7
2018/7/28,21.9,26.1,18.6
2018/7/29,24.4,29.8,20.2
,,,
,,,
2019/6/7,16.3,17.3,15.5
2019/6/8,18.3,24.1,14.3
2019/6/9,14.7,16.8,12.7
2019/6/10,14.3,18.5,12.6
2019/6/11,15,22.2,10.8
2019/6/12,15.2,21.3,11.1
2019/6/13,18.2,27.3,11
2019/6/14,18.5,24.3,12.5
2019/6/15,14.7,16.4,12.4
2019/6/16,18.5,24.3,14.3
2019/6/17,17.3,23.7,12.4
2019/6/18,18.4,26.3,11.8
2019/6/19,19.1,27.1,13
2019/6/20,20.8,27.8,16.4
2019/6/21,20.5,26.6,16
2019/6/22,18.9,24.3,15.7
2019/6/23,18.8,24.6,15.9
2019/6/24,17.1,21.7,13.8
2019/6/25,18.9,26.5,11.9
2019/6/26,21.6,28.8,14.1
2019/6/27,22.1,27.1,17
2019/6/28,22.4,28.3,19.3
2019/6/29,20.3,23.3,18.5
2019/6/30,22.9,30.6,18.3
2019/7/1,23,29.6,20
2019/7/2,22.7,28.7,19.6
2019/7/3,20.8,24.2,18.7
2019/7/4,20.2,26.5,18.4
2019/7/5,19.8,23.3,17.6
2019/7/6,19,22.6,17.1
2019/7/7,18.2,21.4,16.6
2019/7/8,19.1,23.6,16.4
2019/7/9,17.1,20,15.3
2019/7/10,18.7,23.9,14.7
2019/7/11,17,20.1,15.4
2019/7/12,18.7,23.6,15.5
2019/7/13,20.9,26.1,16.2
2019/7/14,19.4,22.1,17.9
2019/7/15,21.1,25.6,18.3
2019/7/16,19.9,23.2,17.5
2019/7/17,22.6,29.3,17
2019/7/18,21.7,26.3,18.6
2019/7/19,23,28.5,19.5
2019/7/20,22.5,25.7,19.7
2019/7/21,23.6,28.8,19.9
2019/7/22,22.7,27.3,20.9
2019/7/23,24,29.4,19.5
2019/7/24,25,30.8,21
2019/7/25,25.4,30.5,21.7
2019/7/26,25.8,32.7,20.6
2019/7/27,25,29.1,21.1
2019/7/28,25.5,32.3,21.8
2019/7/29,24.6,31.1,21.3
����,53,53,53
����,20.2,25.4,16.6
,,,
2020/6/11,22,31.1,18.7
2020/6/12,22.1,26,18.7
2020/6/13,19.4,21.1,17
2020/6/14,20.5,27,16.8
2020/6/15,24,30.9,18.1
2020/6/16,21.6,29.4,16.6
2020/6/17,20.4,28.7,14
2020/6/18,18.6,22.4,15.3
2020/6/19,16.1,18.2,14.7
2020/6/20,19.1,25.1,15.1
2020/6/21,18.1,23.2,13.9
2020/6/22,16.4,17.7,15.3
2020/6/23,19.9,27.2,15.4
2020/6/24,21.2,25,18.9
2020/6/25,20.9,27.7,17.9
2020/6/26,23.4,29.1,19.3
2020/6/27,23.2,30.1,18.1
2020/6/28,20.2,26.3,17.1
2020/6/29,20.8,28.3,13.8
2020/6/30,19.8,21.7,18.1
2020/7/1,22.3,27.5,19.4
2020/7/2,23.7,29.9,17.7
2020/7/3,20.2,24.8,17.1
2020/7/4,20,26.5,16.5
2020/7/5,21.5,25.8,18.2
2020/7/6,20.5,22.8,19.1
2020/7/7,23,27.7,19.5
2020/7/8,21.9,26.8,19.2
2020/7/9,21.8,26.3,19.5
2020/7/10,22.1,26.9,19
2020/7/11,21.7,24.7,20
2020/7/12,21.4,27.5,17.4
2020/7/13,18.9,24.7,16.2
,33,33,33
,20.8,26.0,17.3